Location: Allison Elementary School
(34.0784°N, 117.7317°W)
Time: 19:51:42
(UTC+00:00)

Cosmos 1680 Rocket - Pass Details

Date: 15 November 2019
Orbit: 759 x 782 km, 74.1° (Epoch: 09 December)

Event Time Altitude Azimuth Distance (km) Brightness Sun altitude
Rises 01:54:46 0° 187° (S) 3,201 7.0 -14.1°
Reaches altitude 10° 01:57:08 10° 185° (S) 2,280 6.2 -14.5°
Maximum altitude 02:02:15 64° 104° (ESE) 838 3.4 -15.6°
Drops below altitude 10° 02:07:25 10° 24° (NNE) 2,303 5.6 -16.6°
Enters shadow 02:07:35 - 23° (NNE) 2,370 5.7 -16.7°
